{"data":{"norad_id":58800,"epoch":"2026-05-25T03:43:27.665184Z","epoch_age_seconds":71925,"freshness":"FRESH","line1":"1 58800U 24012P   26145.15518131  .00000530  00000+0  28798-4 0  9998","line2":"2 58800  43.0033  93.1325 0001055 263.4833  96.5898 15.27576515132936","mean_motion":15.27576515,"eccentricity":0.0001055,"inclination_deg":43.0033,"raan_deg":93.1325,"arg_perigee_deg":263.4833,"mean_anomaly_deg":96.5898,"bstar":2.8798e-5,"rev_number":13293,"period_min":94.266963773006,"perigee_km":482.33567516915,"apogee_km":483.78338763728,"semimajor_km":6861.1965314032,"source":"CELESTRAK","updated_at":"2026-05-25T13:38:18.750809Z"}}